User: anonymous   Login
Location: Camp Creek
(33.9000°N, 111.8167°W)
Time: 05:36:58
(UTC-07:00)
Language:

Cosmos 1656 - Orbit

View from above orbital plane
View from above orbital plane
View from above satellite
View from above satellite

Ground track
Ground track

The orbit data is extracted from the following two-line orbital elements,

1 15755U 85042A   17054.53016182 -.00000037  00000-0  51584-5 0  9994
2 15755  71.1094 242.6951 0037147 230.0512 129.7349 14.20406460644557
Epoch (UTC): 23 February 2017 12:43:25
Eccentricity: 0.0037147
inclination: 71.1094°
perigee height: 797 km
apogee height: 851 km
right ascension of ascending node: 242.6951°
argument of perigee: 230.0512°
revolutions per day: 14.20406460
mean anomaly at epoch: 129.7349°
orbit number at epoch: 64455

The dashed part of the orbit path shows where the satellite is in the earth's shadow,  

DLR